Regional Weather Roundup
Issued by NWS

Home | Current Version | Previous Version | Graphics & Text | Print | Product List | Glossary On
Versions: 1 2 3 4 5 6 7 8 9 10 11 12 13 14 15 16 17 18 19 20 21 22 23 24 25 26 27 28 29 30 31 32 33 34 35 36 37 38 39 40 41 42 43 44 45 46 47 48 49 50
000
ASUS44 KMEG 051410
RWRTN
TENNESSEE HOURLY STATE WEATHER ROUNDUP
NATIONAL WEATHER SERVICE MEMPHIS TN
900 AM CDT THU MAY 05 2016

TNZ002-004-019-021-049-052-054-088>092-051500-
WEST TENNESSEE

CITY           SKY/WX    TMP DP  RH WIND       PRES   REMARKS
MEMPHIS INTL   MOSUNNY   64  45  49 NW12G17   29.96R
NWS MEMPHIS      N/A     61 N/A N/A MISG        N/A
JACKSON        SUNNY     59  44  57 NW12      29.92R
DYERSBURG      SUNNY     57  39  51 N9G21     29.93R
UNION CITY     SUNNY     55  43  62 N12       29.92R
LEXINGTON      SUNNY     57  43  58 NW9       29.88R
$$

TNZ008-025-027-028-033-062-065-066-051500-
NORTH MIDDLE TENNESSEE

CITY           SKY/WX    TMP DP  RH WIND       PRES   REMARKS
NASHVILLE      MOSUNNY   56  41  57 NW15G21   29.83R
CLARKSVILLE    SUNNY     55  42  61 NW13G23   29.85R
SMYRNA         SUNNY     57  42  57 N16       29.83S
COOKEVILLE     SUNNY     50  46  87 S3        29.79S
CROSSVILLE     PTSUNNY   45  41  86 W8        29.79S
$$

TNZ061-075-076-078-094-096-097-051500-
SOUTH MIDDLE TENNESSEE

CITY           SKY/WX    TMP DP  RH WIND       PRES   REMARKS
FAYETTEVILLE   SUNNY     54  45  71 W8        29.84S
TULLAHOMA      SUNNY     54  45  71 W8        29.83S
WINCHESTER     SUNNY     54  45  71 VRB5      29.83F
MCMINNVILLE    PTSUNNY   52  45  76 S3        29.82R
COLUMBIA       SUNNY     57  52  82 VRB3      29.83S
$$

TNZ017-018-042-046-047-051500-
NORTHEAST TENNESSEE

CITY           SKY/WX    TMP DP  RH WIND       PRES   REMARKS
TRI CITIES     CLOUDY    49  37  63 NW7       29.74S
$$

TNZ012-013-036-069-073-074-051500-
CENTRAL EAST TENNESSEE

CITY           SKY/WX    TMP DP  RH WIND       PRES   REMARKS
KNOXVILLE      LGT RAIN  50  45  83 SW9       29.79R
OAK RIDGE      LGT RAIN  50  44  80 VRB5      29.80S
GATLINBURG     CLOUDY    52  41  66 NW7       29.77S
MORRISTOWN     CLOUDY    48  41  76 NW6       29.76S
$$

TNZ083-085-099-051500-
SOUTHEAST TENNESSEE

CITY           SKY/WX    TMP DP  RH WIND       PRES   REMARKS
CHATTANOOGA    MOSUNNY   55  40  56 W6        29.82S
$$

SKY/WX REPORTED AS FAIR MEANS FEW OR NO CLOUDS BELOW
12 THOUSAND FEET.




USA.gov is the U.S. government's official web portal to all federal, state and local government web resources and services.